SAS743 EYVI-EKCH

Flight info

Callsign SAS743
Flight time 1h 27m
Altitude 38000
Route UPASI DCT TUNGA DCT SUWGI DCT SOMVO DCT ROE M743 TIDVU
Aircraft CRJX/M-SDFGIRWY/S

Departure

Time 2026-04-26 16:06
Airport Vilnius International Airport (EYVI)

Arrival

Time 2026-04-26 17:33
Airport Copenhagen Kastrup Airport (EKCH)
Time Latitude Longitude Altitude Speed Heading
2026-04-26 15:54 54.64165 25.28412 637 ft 0 kts 181°
2026-04-26 16:00 54.64163 25.28412 637 ft 2 kts 182°
2026-04-26 16:00 54.64134 25.28388 636 ft 7 kts 232°
2026-04-26 16:00 54.64125 25.28294 635 ft 9 kts 265°
2026-04-26 16:00 54.64106 25.28194 641 ft 9 kts 225°
2026-04-26 16:01 54.64084 25.28179 640 ft 5 kts 182°
2026-04-26 16:01 54.64031 25.28196 636 ft 9 kts 167°
2026-04-26 16:01 54.63957 25.28224 638 ft 12 kts 167°
2026-04-26 16:01 54.63866 25.28259 632 ft 15 kts 167°
2026-04-26 16:02 54.63757 25.28301 630 ft 17 kts 167°
2026-04-26 16:02 54.63639 25.28346 633 ft 17 kts 167°
2026-04-26 16:02 54.63517 25.28336 625 ft 19 kts 200°
2026-04-26 16:02 54.63433 25.28278 626 ft 20 kts 202°
2026-04-26 16:03 54.63244 25.28147 622 ft 23 kts 202°
2026-04-26 16:03 54.63087 25.28037 613 ft 25 kts 202°
2026-04-26 16:03 54.62917 25.27918 610 ft 27 kts 202°
2026-04-26 16:03 54.62778 25.27822 603 ft 20 kts 201°
2026-04-26 16:04 54.62650 25.27736 599 ft 17 kts 201°
2026-04-26 16:04 54.62535 25.27667 596 ft 17 kts 185°
2026-04-26 16:04 54.62444 25.27758 594 ft 17 kts 137°
2026-04-26 16:04 54.62449 25.27904 592 ft 12 kts 30°
2026-04-26 16:05 54.62565 25.27983 597 ft 0 kts 21°
2026-04-26 16:05 54.62662 25.28048 600 ft 47 kts 21°
2026-04-26 16:05 54.63206 25.28421 626 ft 118 kts 22°
2026-04-26 16:06 54.64118 25.29117 766 ft 161 kts 18°
2026-04-26 16:06 54.65167 25.30012 1299 ft 175 kts 19°
2026-04-26 16:06 54.66217 25.30885 2253 ft 162 kts 12°
2026-04-26 16:06 54.67239 25.31537 3143 ft 150 kts 10°
2026-04-26 16:07 54.68228 25.32138 3836 ft 151 kts 10°
2026-04-26 16:07 54.69215 25.32653 4490 ft 148 kts 358°
2026-04-26 16:07 54.70056 25.31863 5164 ft 151 kts 300°
2026-04-26 16:07 54.70185 25.30022 5981 ft 155 kts 283°
2026-04-26 16:08 54.70303 25.28121 6429 ft 166 kts 285°
2026-04-26 16:08 54.70401 25.26780 6693 ft 174 kts 285°
2026-04-26 16:08 54.70609 25.23726 7038 ft 209 kts 284°
2026-04-26 16:08 54.70780 25.21131 7442 ft 229 kts 283°
2026-04-26 16:09 54.70757 25.18245 7930 ft 253 kts 268°
2026-04-26 16:09 54.70087 25.15300 8637 ft 270 kts 250°
2026-04-26 16:09 54.69182 25.12426 9430 ft 274 kts 249°
2026-04-26 16:09 54.68225 25.09545 10166 ft 279 kts 247°
2026-04-26 16:10 54.67213 25.06654 10861 ft 283 kts 245°
2026-04-26 16:10 54.66173 25.03733 11572 ft 286 kts 245°
2026-04-26 16:10 54.65133 25.00813 12237 ft 290 kts 245°
2026-04-26 16:10 54.64070 24.97817 12935 ft 294 kts 244°
2026-04-26 16:11 54.62994 24.94786 13613 ft 298 kts 244°
2026-04-26 16:11 54.61901 24.91730 14234 ft 301 kts 244°
2026-04-26 16:11 54.60791 24.88634 14844 ft 305 kts 244°
2026-04-26 16:11 54.59668 24.85510 15446 ft 308 kts 245°
2026-04-26 16:12 54.58533 24.82344 16066 ft 312 kts 245°
2026-04-26 16:12 54.57387 24.79146 16687 ft 315 kts 246°
2026-04-26 16:12 54.55076 24.72694 17833 ft 322 kts 246°
2026-04-26 16:13 54.53873 24.69385 18324 ft 329 kts 248°
2026-04-26 16:13 54.52639 24.66043 18822 ft 332 kts 248°
2026-04-26 16:13 54.51391 24.62683 19333 ft 335 kts 249°
2026-04-26 16:13 54.50150 24.59270 19819 ft 337 kts 250°
2026-04-26 16:14 54.48903 24.55832 20339 ft 340 kts 251°
2026-04-26 16:14 54.47648 24.52367 20837 ft 343 kts 252°
2026-04-26 16:14 54.45059 24.45179 21154 ft 369 kts 252°
2026-04-26 16:15 54.43702 24.41327 21189 ft 385 kts 252°
2026-04-26 16:15 54.42280 24.37328 21303 ft 398 kts 250°
2026-04-26 16:15 54.40804 24.33288 21746 ft 400 kts 251°
2026-04-26 16:16 54.38059 24.25035 22496 ft 387 kts 263°
2026-04-26 16:16 54.37249 24.20701 22937 ft 379 kts 269°
2026-04-26 16:16 54.36550 24.16352 23366 ft 379 kts 270°
2026-04-26 16:16 54.35851 24.12031 23695 ft 381 kts 269°
2026-04-26 16:17 54.35135 24.07646 24031 ft 383 kts 269°
2026-04-26 16:17 54.34372 24.03241 24352 ft 387 kts 268°
2026-04-26 16:17 54.33592 23.98824 24661 ft 389 kts 268°
2026-04-26 16:17 54.32803 23.94378 24968 ft 390 kts 268°
2026-04-26 16:18 54.32004 23.89917 25265 ft 392 kts 268°
2026-04-26 16:18 54.30401 23.80948 25846 ft 395 kts 267°
2026-04-26 16:19 54.28773 23.71909 26388 ft 399 kts 267°
2026-04-26 16:19 54.27953 23.67366 26645 ft 401 kts 267°
2026-04-26 16:19 54.26575 23.59771 27083 ft 403 kts 267°
2026-04-26 16:20 54.25453 23.53614 27412 ft 405 kts 266°
2026-04-26 16:20 54.23769 23.44399 27783 ft 407 kts 265°
2026-04-26 16:20 54.22901 23.39770 27982 ft 414 kts 262°
2026-04-26 16:21 54.21728 23.35197 28209 ft 425 kts 256°
2026-04-26 16:21 54.20342 23.30758 28444 ft 432 kts 253°
2026-04-26 16:21 54.18842 23.26316 28769 ft 431 kts 252°
2026-04-26 16:21 54.17337 23.21893 29066 ft 431 kts 252°
2026-04-26 16:22 54.15861 23.17450 29369 ft 428 kts 254°
2026-04-26 16:22 54.14422 23.13008 29668 ft 428 kts 253°
2026-04-26 16:22 54.12986 23.08576 29944 ft 427 kts 254°
2026-04-26 16:22 54.11546 23.04150 30217 ft 426 kts 254°
2026-04-26 16:23 54.10106 22.99727 30459 ft 426 kts 253°
2026-04-26 16:23 54.08680 22.95311 30628 ft 422 kts 256°
2026-04-26 16:23 54.07804 22.90724 30763 ft 398 kts 271°
2026-04-26 16:23 54.07376 22.86111 30992 ft 393 kts 274°
2026-04-26 16:24 54.07106 22.81502 31209 ft 385 kts 278°
2026-04-26 16:24 54.07122 22.77052 31426 ft 378 kts 283°
2026-04-26 16:24 54.07278 22.72593 31609 ft 376 kts 284°
2026-04-26 16:24 54.07456 22.68153 31745 ft 377 kts 284°
2026-04-26 16:25 54.07753 22.59135 31870 ft 386 kts 282°
2026-04-26 16:25 54.07861 22.54559 32030 ft 385 kts 282°
2026-04-26 16:25 54.07959 22.50036 32522 ft 378 kts 282°
2026-04-26 16:26 54.08062 22.45566 32787 ft 377 kts 282°
2026-04-26 16:26 54.08129 22.42620 32936 ft 376 kts 282°
2026-04-26 16:26 54.08261 22.36664 33221 ft 375 kts 282°
2026-04-26 16:26 54.08356 22.32286 33420 ft 374 kts 282°
2026-04-26 16:27 54.08452 22.27846 33639 ft 374 kts 282°
2026-04-26 16:27 54.08546 22.23436 33843 ft 373 kts 282°
2026-04-26 16:27 54.08637 22.19022 34051 ft 372 kts 282°
2026-04-26 16:27 54.08725 22.14620 34171 ft 372 kts 282°
2026-04-26 16:28 54.08815 22.10219 34311 ft 372 kts 282°
2026-04-26 16:28 54.08902 22.05810 34451 ft 372 kts 282°
2026-04-26 16:28 54.08989 22.01381 34567 ft 373 kts 282°
2026-04-26 16:28 54.09075 21.96958 34674 ft 374 kts 281°
2026-04-26 16:29 54.09159 21.92527 34808 ft 375 kts 281°
2026-04-26 16:29 54.09241 21.88085 34931 ft 375 kts 281°
2026-04-26 16:29 54.09321 21.83633 35041 ft 376 kts 281°
2026-04-26 16:29 54.09398 21.79175 35172 ft 377 kts 281°
2026-04-26 16:30 54.09475 21.74767 35304 ft 377 kts 281°
2026-04-26 16:30 54.09551 21.70306 35408 ft 378 kts 281°
2026-04-26 16:30 54.09626 21.65822 35529 ft 378 kts 281°
2026-04-26 16:30 54.09699 21.61331 35659 ft 379 kts 281°
2026-04-26 16:31 54.09764 21.56909 36128 ft 368 kts 280°
2026-04-26 16:31 54.09829 21.52591 36492 ft 363 kts 280°
2026-04-26 16:31 54.09895 21.48293 36646 ft 364 kts 280°
2026-04-26 16:31 54.09959 21.43986 36791 ft 364 kts 280°
2026-04-26 16:32 54.10021 21.39670 36938 ft 364 kts 279°
2026-04-26 16:32 54.10061 21.36812 37016 ft 365 kts 279°
2026-04-26 16:32 54.10140 21.31019 37198 ft 365 kts 279°
2026-04-26 16:32 54.10196 21.26686 37346 ft 366 kts 279°
2026-04-26 16:33 54.10253 21.22339 37480 ft 366 kts 279°
2026-04-26 16:33 54.10306 21.18056 37596 ft 367 kts 279°
2026-04-26 16:33 54.10360 21.13710 37748 ft 367 kts 279°
2026-04-26 16:33 54.10412 21.09358 37887 ft 367 kts 279°
2026-04-26 16:34 54.10460 21.04998 38030 ft 367 kts 279°
2026-04-26 16:34 54.10508 21.00638 38116 ft 369 kts 279°
2026-04-26 16:34 54.10601 20.91839 38177 ft 374 kts 278°
2026-04-26 16:35 54.10688 20.82900 38193 ft 381 kts 278°
2026-04-26 16:35 54.10769 20.73793 38194 ft 387 kts 278°
2026-04-26 16:36 54.10848 20.64542 38199 ft 393 kts 278°
2026-04-26 16:36 54.10924 20.55207 38201 ft 399 kts 278°
2026-04-26 16:37 54.10988 20.45688 38186 ft 404 kts 277°
2026-04-26 16:37 54.11034 20.37703 38205 ft 406 kts 277°
2026-04-26 16:38 54.11084 20.28024 38209 ft 410 kts 277°
2026-04-26 16:38 54.11126 20.18267 38219 ft 413 kts 277°
2026-04-26 16:39 54.11161 20.08496 38215 ft 416 kts 277°
2026-04-26 16:39 54.11189 19.98626 38219 ft 418 kts 277°
2026-04-26 16:40 54.11207 19.88726 38201 ft 418 kts 277°
2026-04-26 16:40 54.11357 19.78853 38217 ft 412 kts 284°
2026-04-26 16:41 54.12500 19.69344 38228 ft 409 kts 288°
2026-04-26 16:41 54.14100 19.60095 38232 ft 405 kts 295°
2026-04-26 16:42 54.16167 19.51147 38226 ft 405 kts 295°
2026-04-26 16:42 54.18132 19.42110 38191 ft 407 kts 294°
2026-04-26 16:43 54.20050 19.33098 38226 ft 407 kts 294°
2026-04-26 16:43 54.21981 19.23988 38226 ft 407 kts 294°
2026-04-26 16:44 54.23904 19.14879 38231 ft 407 kts 294°
2026-04-26 16:44 54.25821 19.05758 38232 ft 408 kts 294°
2026-04-26 16:45 54.27734 18.96616 38230 ft 408 kts 294°
2026-04-26 16:45 54.29639 18.87466 38220 ft 408 kts 294°
2026-04-26 16:46 54.31538 18.78302 38240 ft 409 kts 294°
2026-04-26 16:46 54.33421 18.69173 38237 ft 409 kts 294°
2026-04-26 16:47 54.35312 18.59965 38240 ft 409 kts 294°
2026-04-26 16:47 54.37197 18.50749 38236 ft 410 kts 293°
2026-04-26 16:48 54.39079 18.41507 38213 ft 410 kts 293°
2026-04-26 16:48 54.40948 18.32275 38234 ft 410 kts 293°
2026-04-26 16:49 54.42813 18.23020 38239 ft 410 kts 293°
2026-04-26 16:49 54.44662 18.13803 38242 ft 411 kts 293°
2026-04-26 16:50 54.46517 18.04506 38244 ft 411 kts 293°
2026-04-26 16:50 54.48370 17.95185 38209 ft 412 kts 293°
2026-04-26 16:51 54.50215 17.85877 38243 ft 411 kts 292°
2026-04-26 16:51 54.52054 17.76530 38249 ft 412 kts 292°
2026-04-26 16:52 54.53577 17.68754 38249 ft 412 kts 292°
2026-04-26 16:52 54.55715 17.57798 38259 ft 413 kts 292°
2026-04-26 16:53 54.57523 17.48470 38243 ft 413 kts 292°
2026-04-26 16:53 54.59340 17.39070 38247 ft 413 kts 291°
2026-04-26 16:54 54.61147 17.29670 38255 ft 413 kts 291°
2026-04-26 16:54 54.62948 17.20246 38258 ft 413 kts 291°
2026-04-26 16:55 54.64742 17.10808 38254 ft 414 kts 291°
2026-04-26 16:55 54.66530 17.01366 38252 ft 414 kts 291°
2026-04-26 16:56 54.69186 16.87253 38250 ft 414 kts 291°
2026-04-26 16:57 54.70955 16.77787 38254 ft 414 kts 291°
2026-04-26 16:57 54.73593 16.63581 38252 ft 414 kts 290°
2026-04-26 16:58 54.75060 16.55629 38255 ft 414 kts 290°
2026-04-26 16:59 54.77966 16.39810 38228 ft 415 kts 290°
2026-04-26 17:00 54.81436 16.20720 38246 ft 417 kts 290°
2026-04-26 17:00 54.84032 16.06292 37786 ft 415 kts 290°
2026-04-26 17:01 54.84881 16.01549 37247 ft 408 kts 290°
2026-04-26 17:01 54.85718 15.96878 36714 ft 403 kts 290°
2026-04-26 17:01 54.86544 15.92238 36196 ft 401 kts 290°
2026-04-26 17:01 54.87363 15.87632 35698 ft 399 kts 290°
2026-04-26 17:02 54.88175 15.83036 35206 ft 396 kts 290°
2026-04-26 17:02 54.88982 15.78481 34725 ft 393 kts 290°
2026-04-26 17:02 54.89782 15.73951 34247 ft 391 kts 289°
2026-04-26 17:02 54.90574 15.69444 33701 ft 389 kts 289°
2026-04-26 17:03 54.91360 15.64961 33155 ft 387 kts 289°
2026-04-26 17:03 54.92144 15.60494 32619 ft 385 kts 290°
2026-04-26 17:03 54.92918 15.56051 32104 ft 383 kts 289°
2026-04-26 17:03 54.93695 15.51603 31589 ft 385 kts 289°
2026-04-26 17:04 54.94472 15.47133 31091 ft 386 kts 289°
2026-04-26 17:04 54.95238 15.42702 30587 ft 388 kts 289°
2026-04-26 17:04 54.96018 15.38204 30063 ft 389 kts 289°
2026-04-26 17:04 54.96799 15.33684 29497 ft 391 kts 289°
2026-04-26 17:05 54.97582 15.29142 28941 ft 392 kts 289°
2026-04-26 17:05 54.98364 15.24587 28397 ft 393 kts 289°
2026-04-26 17:05 54.99144 15.20017 27856 ft 393 kts 289°
2026-04-26 17:05 54.99921 15.15472 27347 ft 388 kts 289°
2026-04-26 17:06 55.00680 15.11015 26817 ft 379 kts 289°
2026-04-26 17:06 55.01418 15.06649 26303 ft 372 kts 289°
2026-04-26 17:06 55.02146 15.02354 25796 ft 366 kts 289°
2026-04-26 17:06 55.02862 14.98123 25309 ft 361 kts 289°
2026-04-26 17:07 55.03567 14.93946 24827 ft 357 kts 289°
2026-04-26 17:07 55.04261 14.89817 24327 ft 353 kts 289°
2026-04-26 17:07 55.04950 14.85713 23856 ft 351 kts 289°
2026-04-26 17:07 55.05632 14.81648 23301 ft 348 kts 289°
2026-04-26 17:08 55.06307 14.77601 22752 ft 346 kts 289°
2026-04-26 17:08 55.07118 14.73675 22213 ft 342 kts 296°
2026-04-26 17:08 55.08160 14.69953 21681 ft 340 kts 300°
2026-04-26 17:08 55.09289 14.66328 21178 ft 339 kts 300°
2026-04-26 17:09 55.10400 14.62768 20668 ft 338 kts 300°
2026-04-26 17:09 55.11152 14.60326 20328 ft 337 kts 300°
2026-04-26 17:09 55.12579 14.55505 19674 ft 336 kts 299°
2026-04-26 17:09 55.13643 14.51864 19198 ft 336 kts 299°
2026-04-26 17:10 55.14709 14.48232 18717 ft 335 kts 299°
2026-04-26 17:10 55.15768 14.44599 18195 ft 335 kts 299°
2026-04-26 17:10 55.16825 14.40973 17636 ft 335 kts 299°
2026-04-26 17:10 55.17885 14.37334 17105 ft 335 kts 299°
2026-04-26 17:11 55.18938 14.33705 16585 ft 335 kts 299°
2026-04-26 17:11 55.19991 14.30065 16074 ft 335 kts 299°
2026-04-26 17:11 55.21045 14.26433 15572 ft 334 kts 299°
2026-04-26 17:11 55.22092 14.22802 15079 ft 334 kts 299°
2026-04-26 17:12 55.24169 14.15598 14122 ft 332 kts 299°
2026-04-26 17:12 55.25207 14.11986 13587 ft 331 kts 299°
2026-04-26 17:13 55.27273 14.04781 12529 ft 329 kts 299°
2026-04-26 17:13 55.28297 14.01197 12019 ft 327 kts 299°
2026-04-26 17:13 55.30183 13.93997 10987 ft 321 kts 289°
2026-04-26 17:14 55.30560 13.90199 10478 ft 312 kts 281°
2026-04-26 17:14 55.30930 13.83070 9406 ft 280 kts 278°
2026-04-26 17:14 55.31087 13.79742 8852 ft 268 kts 278°
2026-04-26 17:15 55.31369 13.73313 7868 ft 261 kts 278°
2026-04-26 17:15 55.31506 13.70170 7485 ft 256 kts 278°
2026-04-26 17:15 55.31662 13.67088 7104 ft 251 kts 278°
2026-04-26 17:16 55.31820 13.64059 6726 ft 248 kts 278°
2026-04-26 17:16 55.31980 13.61045 6326 ft 247 kts 278°
2026-04-26 17:16 55.32138 13.58053 5926 ft 245 kts 278°
2026-04-26 17:16 55.32295 13.55084 5536 ft 243 kts 278°
2026-04-26 17:17 55.32449 13.52143 5219 ft 238 kts 277°
2026-04-26 17:17 55.32603 13.49302 5079 ft 237 kts 277°
2026-04-26 17:17 55.32754 13.46420 5022 ft 238 kts 277°
2026-04-26 17:17 55.32904 13.43526 5000 ft 238 kts 277°
2026-04-26 17:18 55.33055 13.40634 4988 ft 237 kts 277°
2026-04-26 17:18 55.33202 13.37752 4978 ft 237 kts 277°
2026-04-26 17:18 55.33365 13.34860 4977 ft 240 kts 277°
2026-04-26 17:18 55.33530 13.31999 4972 ft 232 kts 277°
2026-04-26 17:19 55.33848 13.26354 4976 ft 232 kts 277°
2026-04-26 17:19 55.33998 13.23535 4982 ft 231 kts 277°
2026-04-26 17:19 55.34140 13.20722 4984 ft 231 kts 276°
2026-04-26 17:20 55.34283 13.17905 4982 ft 231 kts 276°
2026-04-26 17:20 55.34328 13.16986 4987 ft 231 kts 276°
2026-04-26 17:20 55.34565 13.12272 4948 ft 232 kts 276°
2026-04-26 17:20 55.34706 13.09441 4678 ft 232 kts 276°
2026-04-26 17:21 55.34842 13.06619 4414 ft 231 kts 276°
2026-04-26 17:21 55.34981 13.03802 4175 ft 231 kts 276°
2026-04-26 17:21 55.35116 13.01041 4064 ft 230 kts 276°
2026-04-26 17:21 55.35250 12.98231 4019 ft 232 kts 276°
2026-04-26 17:22 55.35387 12.95400 4001 ft 232 kts 276°
2026-04-26 17:22 55.35526 12.92569 3991 ft 232 kts 276°
2026-04-26 17:22 55.35658 12.89735 3988 ft 232 kts 276°
2026-04-26 17:22 55.35795 12.86898 3988 ft 232 kts 276°
2026-04-26 17:23 55.35930 12.84074 3967 ft 233 kts 276°
2026-04-26 17:23 55.36069 12.81197 3701 ft 237 kts 276°
2026-04-26 17:23 55.36218 12.78293 3443 ft 240 kts 276°
2026-04-26 17:23 55.36374 12.75377 3198 ft 238 kts 276°
2026-04-26 17:24 55.36527 12.72570 3063 ft 226 kts 276°
2026-04-26 17:24 55.36672 12.69907 3016 ft 211 kts 276°
2026-04-26 17:24 55.36805 12.67454 3038 ft 188 kts 276°
2026-04-26 17:24 55.36922 12.65266 3020 ft 175 kts 276°
2026-04-26 17:25 55.37036 12.63139 3005 ft 175 kts 276°
2026-04-26 17:25 55.37149 12.61012 2996 ft 174 kts 276°
2026-04-26 17:25 55.37224 12.59610 2994 ft 174 kts 276°
2026-04-26 17:25 55.37336 12.57495 2990 ft 174 kts 276°
2026-04-26 17:26 55.37447 12.55386 2985 ft 173 kts 276°
2026-04-26 17:26 55.37558 12.53283 2980 ft 172 kts 276°
2026-04-26 17:26 55.37667 12.51192 2971 ft 171 kts 276°
2026-04-26 17:26 55.37880 12.49140 2943 ft 171 kts 295°
2026-04-26 17:27 55.38688 12.47634 2959 ft 169 kts 316°
2026-04-26 17:27 55.39546 12.46217 2978 ft 171 kts 315°
2026-04-26 17:27 55.40392 12.44785 2979 ft 167 kts 315°
2026-04-26 17:27 55.41227 12.43376 2979 ft 169 kts 315°
2026-04-26 17:28 55.42062 12.42001 2971 ft 160 kts 319°
2026-04-26 17:28 55.43135 12.41516 2919 ft 169 kts
2026-04-26 17:28 55.44261 12.42157 2965 ft 171 kts 14°
2026-04-26 17:28 55.45426 12.42802 2752 ft 182 kts 14°
2026-04-26 17:29 55.46637 12.43466 2381 ft 182 kts 14°
2026-04-26 17:29 55.47429 12.43906 2209 ft 177 kts 15°
2026-04-26 17:29 55.48876 12.45010 2041 ft 163 kts 31°
2026-04-26 17:29 55.49805 12.46134 1999 ft 164 kts 33°
2026-04-26 17:30 55.50725 12.47351 1988 ft 168 kts 36°
2026-04-26 17:30 55.51636 12.48690 2011 ft 171 kts 38°
2026-04-26 17:30 55.52529 12.50043 1866 ft 170 kts 39°
2026-04-26 17:30 55.53410 12.51399 1668 ft 162 kts 39°
2026-04-26 17:31 55.54265 12.52719 1459 ft 164 kts 39°
2026-04-26 17:31 55.55088 12.53994 1193 ft 148 kts 39°
2026-04-26 17:31 55.55833 12.55149 960 ft 139 kts 38°
2026-04-26 17:31 55.56557 12.56240 749 ft 134 kts 36°
2026-04-26 17:32 55.57237 12.57276 586 ft 129 kts 38°
2026-04-26 17:32 55.57906 12.58298 418 ft 121 kts 38°
2026-04-26 17:32 55.58523 12.59242 244 ft 120 kts 40°
2026-04-26 17:32 55.59144 12.60215 90 ft 116 kts 40°
2026-04-26 17:33 55.59723 12.61125 16 ft 98 kts 40°
2026-04-26 17:33 55.60152 12.61791 17 ft 69 kts 40°
2026-04-26 17:33 55.60431 12.62205 19 ft 32 kts 32°
2026-04-26 17:34 55.60686 12.62360 16 ft 12 kts 14°
2026-04-26 17:34 55.60772 12.62403 16 ft 14 kts 20°
2026-04-26 17:34 55.60842 12.62482 16 ft 10 kts 42°
2026-04-26 17:34 55.60898 12.62571 15 ft 12 kts 41°
2026-04-26 17:35 55.60963 12.62672 17 ft 13 kts 41°
2026-04-26 17:35 55.61036 12.62783 15 ft 15 kts 40°
2026-04-26 17:35 55.61118 12.62907 16 ft 16 kts 41°
2026-04-26 17:35 55.61205 12.63037 16 ft 16 kts 39°
2026-04-26 17:36 55.61291 12.63172 16 ft 16 kts 42°
2026-04-26 17:36 55.61374 12.63305 16 ft 15 kts 41°
2026-04-26 17:36 55.61450 12.63422 15 ft 15 kts 41°
2026-04-26 17:36 55.61533 12.63551 15 ft 17 kts 41°
2026-04-26 17:37 55.61622 12.63690 15 ft 17 kts 41°
2026-04-26 17:37 55.61715 12.63834 17 ft 18 kts 41°
2026-04-26 17:37 55.61812 12.63983 17 ft 19 kts 41°
2026-04-26 17:38 55.62034 12.64207 17 ft 19 kts 25°
2026-04-26 17:38 55.62149 12.64304 15 ft 18 kts 25°
2026-04-26 17:38 55.62253 12.64434 14 ft 18 kts 58°
2026-04-26 17:38 55.62281 12.64534 15 ft 0 kts 67°
2026-04-26 17:39 55.62285 12.64552 15 ft 5 kts 67°
2026-04-26 17:39 55.62308 12.64647 17 ft 12 kts 67°
2026-04-26 17:39 55.62345 12.64798 15 ft 14 kts 72°
2026-04-26 17:40 55.62317 12.64958 15 ft 15 kts 124°
2026-04-26 17:40 55.62280 12.65064 15 ft 15 kts 114°
2026-04-26 17:40 55.62291 12.65262 15 ft 12 kts 84°
2026-04-26 17:40 55.62294 12.65420 15 ft 14 kts 88°
2026-04-26 17:41 55.62296 12.65599 16 ft 15 kts 88°
2026-04-26 17:41 55.62299 12.65799 15 ft 17 kts 88°
2026-04-26 17:41 55.62323 12.66000 16 ft 17 kts 51°
2026-04-26 17:41 55.62415 12.66149 15 ft 18 kts 40°
2026-04-26 17:42 55.62514 12.66187 16 ft 14 kts 325°
2026-04-26 17:42 55.62611 12.66139 15 ft 15 kts
2026-04-26 17:42 55.62698 12.66242 16 ft 16 kts 42°
2026-04-26 17:42 55.62749 12.66350 15 ft 4 kts 101°
2026-04-26 17:43 55.62734 12.66385 15 ft 4 kts 130°
2026-04-26 17:43 55.62714 12.66428 15 ft 3 kts 130°
2026-04-26 17:43 55.62713 12.66429 15 ft 0 kts 130°